EHI
59 63 68 69 72 79 83 82 82 81 78 75 74 72 64 50 41 46 49 41 31 27 27 25 23 25 26 22 17 15 13 13 17 20 15 10 13 19 28 35 34 30 27
61 64 68 69 72 78 80 78 80 82 79 75 71 67 60 50 44 48 51 42 30 25 25 24 22 22 22 18 15 15 14 11 14 20 18 12 12 15 22 30 32 29 28
62 62 63 65 68 73 75 75 78 80 78 74 69 62 56 51 49 54 55 46 31 25 25 25 22 21 20 15 11 11 10 7 10 16 19 16 13 12 15 19 23 25 27
54 54 55 56 58 62 67 72 76 78 77 75 72 66 58 54 56 61 60 49 35 27 27 27 27 25 22 17 12 8 5 4 4 9 14 15 13 11 10 10 12 15 18
40 45 49 50 49 50 56 65 73 76 78 79 77 73 66 62 63 63 58 48 39 34 32 32 34 32 25 19 15 11 6 3 2 3 6 8 8 8 7 6 6 8 10
33 37 42 46 44 42 46 54 62 67 71 73 74 75 71 66 63 58 51 45 41 40 36 36 39 36 28 20 17 13 8 4 2 2 3 3 4 5 5 4 3 5 7
25 25 28 33 33 32 33 37 43 49 52 55 58 63 64 61 57 52 46 41 38 38 38 37 39 38 30 20 14 11 7 4 3 2 3 3 4 4 3 2 1 3 4
13 11 13 16 16 15 16 18 24 29 33 35 37 41 43 44 44 45 41 37 35 34 35 35 35 36 30 20 13 8 6 4 3 2 2 3 3 3 2 1 0 1 1
3 3 4 4 3 3 4 6 10 14 16 17 18 21 23 25 29 31 30 27 28 30 30 28 28 30 27 21 13 8 5 4 3 2 1 1 2 3 3 2 1 0 0
0 0 1 1 0 0 1 1 2 4 4 5 6 7 10 14 17 18 17 16 18 22 23 20 20 21 20 19 15 10 5 4 3 2 1 1 2 3 3 3 1 0 0
0 0 0 0 0 0 0 0 0 0 0 1 1 1 4 7 9 10 9 9 11 13 15 15 15 12 11 13 13 9 6 4 4 2 0 0 1 2 2 2 1 0 0
0 0 0 0 0 0 0 0 0 0 0 0 0 0 1 2 3 4 4 5 6 7 8 10 9 7 5 7 8 6 4 3 3 2 0 0 0 1 1 1 1 0 0
0 0 0 0 0 0 0 0 0 0 0 0 0 0 0 0 1 1 1 2 3 3 4 5 5 3 2 2 3 3 2 1 1 1 0 0 0 1 1 0 0 0 0
0 0 0 0 0 0 0 0 0 0 0 0 0 0 0 0 0 0 0 1 1 1 1 2 2 1 1 0 1 1 1 1 0 0 0 0 0 1 1 0 0 0 0
0 0 0 0 0 0 0 0 0 0 0 0 0 0 0 0 0 0 0 0 0 0 0 1 1 0 0 0 0 0 0 0 0 0 0 0 0 0 0 0 0 0 0
0 0 0 0 0 0 0 0 0 0 0 0 0 0 0 0 0 0 0 0 0 0 0 0 0 0 0 0 0 0 0 0 0 0 0 0 0 0 0 0 0 0 0
0 0 0 0 0 0 0 0 0 0 0 0 0 0 0 0 0 0 0 0 0 0 0 0 0 0 0 0 0 0 0 0 0 0 0 0 0 0 0 0 0 0 0
0 0 0 0 0 0 0 0 0 0 0 0 0 0 0 0 0 0 0 0 0 0 0 0 0 0 0 0 0 0 0 0 0 0 0 0 0 0 0 0 0 0 0
0 0 0 0 0 0 0 0 0 0 0 0 0 0 0 0 0 0 0 0 0 0 0 0 0 0 0 0 0 0 0 0 0 0 0 0 0 0 0 0 0 0 0
0 0 0 0 0 0 0 0 0 0 0 0 0 0 0 0 0 0 0 0 0 0 0 0 0 0 0 0 0 0 0 0 0 0 0 0 0 0 0 0 0 0 0
0 0 0 0 0 0 0 0 0 0 0 0 0 0 0 0 0 0 0 0 0 0 0 0 0 0 0 0 0 0 0 0 0 0 0 0 0 0 0 0 0 0 0
0 0 0 0 0 0 0 0 0 0 0 0 0 0 0 0 0 0 0 0 0 0 0 0 0 0 0 0 0 0 0 0 0 0 0 0 0 0 0 0 0 0 0
0 0 0 0 0 0 0 0 0 0 0 0 0 0 0 0 0 0 0 0 0 0 0 0 0 0 0 0 0 0 0 0 0 0 0 0 0 0 0 0 0 0 0
0 0 0 0 0 0 0 0 0 0 0 0 0 0 0 0 0 0 0 0 0 0 0 0 0 0 0 0 0 0 0 0 0 0 0 0 0 0 0 0 0 0 0
0 0 0 0 0 0 0 0 0 0 0 0 0 0 0 0 0 0 0 0 0 0 0 0 0 0 0 0 0 0 0 0 0 0 0 0 0 0 0 0 0 0 0
0 0 0 0 0 0 0 0 0 0 0 0 0 0 0 0 0 0 0 0 0 0 0 0 0 0 0 0 0 0 0 0 0 0 0 0 0 0 0 0 0 0 0
Wind_Speed
5 5 6 5 6 6 7 5 5 4 2 1 2 2 2 2 2 1 2 1 1 1 2 3 3 3 3 4 5 4 5 5 4 4 5 6 8 9 8 8 8 9 9
7 7 7 7 6 6 5 5 4 4 2 1 1 1 1 2 2 0 1 2 0 1 3 1 3 3 3 5 4 4 3 5 4 3 3 4 4 5 8 7 8 9 8
7 7 7 6 6 7 5 4 4 4 2 1 1 1 1 2 2 1 1 1 0 2 2 2 3 3 4 4 4 4 5 5 4 4 4 3 3 3 3 5 5 6 6
9 8 5 4 7 7 6 6 5 4 3 2 3 3 3 3 2 2 1 1 2 3 3 4 3 3 3 4 5 3 4 5 5 4 4 5 4 3 4 3 4 5 6
7 7 6 7 8 7 7 7 6 5 5 4 4 4 4 4 4 4 4 3 3 4 4 4 3 3 3 4 4 4 5 4 5 5 5 5 5 6 5 6 5 4 4
6 9 9 10 10 11 10 9 8 7 7 6 6 5 6 6 6 6 6 5 4 4 4 4 2 3 3 3 4 4 6 5 6 5 5 5 5 4 4 6 6 5 4
8 9 10 10 9 10 10 10 10 8 8 7 7 7 6 6 6 6 6 6 5 5 4 4 2 3 4 4 5 5 6 6 7 6 6 6 6 6 5 6 6 6 5
9 9 9 8 7 8 8 8 7 6 6 6 6 6 6 5 5 6 6 7 6 6 6 5 4 4 5 6 5 5 6 6 6 8 7 6 6 6 5 6 6 6 5
8 7 7 7 7 7 6 6 6 5 5 6 6 5 6 6 6 6 7 6 6 7 7 7 6 6 6 6 6 6 6 6 6 7 7 6 5 5 5 5 5 6 6
6 6 5 5 5 4 4 5 5 5 5 6 6 7 6 6 6 7 7 7 7 7 7 8 8 7 7 7 6 7 6 6 6 6 7 6 5 5 5 5 5 6 6
7 7 6 6 6 7 7 6 6 6 6 6 6 6 6 6 6 6 7 7 7 8 8 8 8 8 8 7 6 7 7 7 7 7 7 6 6 5 5 5 5 5 5
8 9 9 8 8 8 9 8 7 7 7 6 6 7 7 7 7 7 7 7 8 8 9 8 8 9 9 7 7 8 8 7 7 7 6 6 5 5 5 4 5 4 4
10 10 9 8 8 8 8 9 9 8 8 7 7 7 7 7 7 7 7 7 8 8 9 9 9 9 9 8 7 8 7 7 7 6 6 6 5 5 4 4 4 4 3
11 10 8 7 7 7 8 9 9 8 9 8 8 8 8 8 8 8 8 8 8 8 9 10 9 9 9 9 8 7 6 6 6 5 4 4 4 5 4 4 4 3 3
13 9 7 7 7 7 7 8 8 7 8 8 8 8 8 8 8 8 8 8 8 11 9 9 10 9 8 9 8 6 7 6 6 5 4 3 3 4 4 4 3 3 3
12 11 11 10 9 9 9 9 8 7 7 8 9 9 9 9 9 9 9 9 8 8 8 9 10 10 10 8 8 7 6 5 5 4 3 3 3 2 3 3 4 5 5
14 13 13 10 9 10 8 9 8 8 8 9 10 9 10 10 9 11 10 9 9 8 8 9 9 10 9 10 9 9 6 5 4 4 4 4 2 2 2 3 4 4 5
16 14 13 13 12 11 9 8 9 9 9 10 10 10 9 10 9 9 9 9 8 8 8 9 9 9 9 9 9 9 6 5 4 4 4 2 2 2 3 4 4 3 3
17 14 15 16 12 11 10 10 10 10 11 12 10 10 10 10 10 10 10 9 9 9 9 9 9 8 7 8 8 8 5 4 4 4 3 3 3 3 4 5 6 6 6
16 15 15 15 12 9 9 10 12 12 12 13 11 11 10 10 11 11 11 10 9 9 10 9 8 8 6 6 7 8 5 4 4 3 3 4 5 5 5 6 7 8 7
17 15 14 13 10 10 10 12 13 13 12 12 12 11 10 10 11 10 9 9 9 9 9 10 8 8 6 5 7 8 5 4 4 4 3 4 8 8 6 5 6 9 8
18 18 13 12 10 10 11 12 13 12 12 12 12 12 11 12 13 9 9 9 9 9 9 9 8 6 4 3 6 9 7 3 2 3 4 6 9 9 8 7 9 11 8
16 16 16 13 11 10 11 13 12 11 11 11 11 11 12 10 10 10 11 9 8 7 7 6 6 4 2 1 3 6 6 3 1 2 9 11 11 10 8 10 11 8 5
16 16 16 16 14 13 13 12 12 11 12 13 12 11 11 11 10 8 8 7 7 6 5 5 4 3 2 2 2 2 3 3 4 6 10 12 10 7 9 8 6 3 3
15 14 14 14 15 14 13 13 12 12 13 13 12 12 10 10 9 9 7 8 6 5 5 5 3 3 2 2 4 4 4 4 5 8 7 6 6 6 6 5 4 3 4
16 16 16 17 17 16 15 13 12 11 12 11 10 9 8 8 8 8 8 8 8 7 7 7 5 2 3 5 5 5 6 8 11 8 7 7 7 7 7 6 5 4 5
Wind_Direction
128 108 105 111 121 121 122 121 128 128 131 130 171 207 217 243 243 208 131 130 268 325 289 286 318 299 295 302 292 287 287 279 265 265 270 260 245 239 234 232 237 240 237
117 109 106 97 93 95 95 110 113 115 121 123 232 218 253 260 256 46 108 140 124 307 286 351 310 315 313 292 288 293 287 284 278 267 281 280 262 243 239 228 230 237 240
97 84 78 90 97 89 91 95 87 93 80 45 289 320 313 293 291 305 220 141 179 263 277 280 285 302 294 297 313 297 286 285 285 254 250 268 276 316 271 252 244 240 239
77 80 73 70 79 84 85 75 74 70 56 30 350 327 301 301 317 309 316 346 265 257 250 245 248 262 280 285 286 313 312 295 288 281 257 253 270 276 292 282 268 263 252
79 78 72 60 55 55 60 60 55 47 33 17 357 341 331 330 332 334 322 308 282 258 250 241 235 244 262 275 290 295 288 285 284 287 290 284 273 248 254 275 275 267 256
74 73 56 46 41 36 37 40 40 30 22 15 6 356 341 330 322 315 309 304 287 270 256 253 240 257 269 283 282 278 276 269 273 275 275 275 272 270 259 265 272 272 268
60 55 56 45 39 35 32 31 32 24 15 12 7 355 346 330 314 310 308 304 299 294 294 289 262 265 267 268 268 268 270 271 269 266 264 263 262 264 265 268 272 273 271
68 56 52 49 40 30 26 26 23 14 7 3 353 341 341 335 330 328 321 307 301 304 305 299 282 270 267 269 266 267 265 264 265 271 269 266 262 257 255 257 264 272 270
61 55 46 39 31 24 15 7 3 2 355 348 339 329 341 333 321 315 308 309 310 304 309 306 293 282 276 270 269 266 265 266 265 270 270 264 263 259 255 250 247 249 259
45 38 29 25 11 2 2 357 350 344 335 328 321 323 326 313 308 305 302 300 301 302 300 292 288 282 276 269 266 269 263 262 262 262 266 268 268 267 261 254 248 243 244
11 4 354 353 347 342 346 344 337 331 322 315 311 305 299 299 302 300 299 299 295 291 287 283 281 277 271 266 262 266 267 266 266 267 268 269 269 268 266 261 253 247 236
346 339 338 338 335 333 331 327 322 310 302 297 292 293 291 290 291 293 292 293 292 289 285 284 281 278 273 265 263 266 268 267 269 271 272 272 272 267 266 263 258 251 237
328 323 323 324 321 316 312 308 302 299 298 298 295 296 296 293 289 288 288 289 292 292 290 283 279 277 273 265 261 261 262 265 268 270 272 271 270 268 266 261 253 248 232
312 308 308 306 300 296 295 296 298 301 299 298 299 296 292 290 291 289 286 285 287 290 289 286 280 278 277 271 263 261 263 264 267 265 263 265 265 267 264 258 241 231 208
312 317 317 312 308 305 304 303 299 299 298 295 292 289 286 286 286 285 285 283 282 288 292 295 290 283 279 271 265 257 258 257 260 257 253 254 261 270 258 252 230 213 191
333 334 325 320 317 314 309 306 303 301 299 296 294 293 290 289 286 286 284 285 285 287 292 294 293 288 284 288 281 263 261 251 247 243 242 231 224 236 225 215 206 194 188
332 324 320 316 312 309 303 300 301 297 292 290 290 289 288 287 285 290 293 293 296 295 292 292 294 291 283 275 265 254 255 246 233 225 229 236 211 212 196 164 157 160 167
322 319 316 312 307 306 303 298 300 296 293 291 289 288 288 289 289 287 287 289 292 292 290 288 286 288 285 272 256 254 249 243 225 213 214 213 196 203 178 165 136 115 119
320 316 312 309 306 303 299 300 300 296 295 295 292 294 292 292 293 292 291 291 289 287 283 282 277 277 283 269 247 240 243 235 225 210 195 176 178 161 154 141 123 113 103
314 309 309 307 303 301 301 297 297 296 296 297 294 294 292 291 291 289 287 286 283 282 281 278 276 272 274 270 238 224 243 228 210 186 156 143 140 139 139 135 129 124 120
312 312 311 309 308 306 302 298 297 295 294 294 293 292 291 290 286 281 280 281 281 280 277 276 273 268 261 254 221 219 233 229 194 171 154 133 132 129 120 125 123 123 122
315 315 312 308 306 305 302 298 295 296 297 295 295 294 292 292 293 291 289 284 281 279 275 272 271 269 254 231 214 218 223 245 199 171 142 133 132 123 117 116 119 119 114
316 315 313 309 307 304 298 296 297 296 296 294 293 293 292 288 285 282 282 282 277 274 273 272 269 268 247 190 196 206 208 217 198 133 129 133 132 122 113 119 126 128 124
318 316 313 311 309 306 301 298 299 298 295 293 291 289 288 286 284 279 278 278 275 275 276 273 273 270 223 145 154 173 161 146 128 122 126 127 129 122 122 132 140 150 147
318 317 315 312 309 305 302 302 300 298 295 294 292 290 287 287 285 280 273 274 270 265 262 271 272 266 235 173 172 177 177 171 142 134 136 139 140 140 140 144 154 164 149
322 319 315 310 308 308 305 302 298 294 292 289 288 287 285 282 279 281 284 275 267 264 252 242 239 242 182 162 172 181 175 154 144 143 151 151 151 150 148 152 156 153 137